Flag for Canada Weather past 2 weeks in Québec, Quebec, Canada

Now
30 °F

Passing clouds.


Feels Like: 24 °F
Forecast: 22 / 39 °F
Wind: 6 mph from Northeast

Location: Quebec Weather Station


UV Index: 0 (Low)

Visibility: 30 mi


Pressure: 30.55 "Hg

Humidity: 64%

Dew point: 19 °F

Location of QuébecLocation

Historic Weather in Québec

°F

Québec temperature yesterday

Maximum temperature yesterday: 41 °F (at 4:00 PM)
Minimum temperature yesterday: 16 °F (at 2:00 AM)
Average temperature yesterday: 29 °F

Past Weeks' High & Low Weather Summary

 TemperatureHumidityPressure
High54 °F (Apr 15, 1:00 PM)100% (Apr 5, 1:00 AM)30.84 "Hg (Apr 5, 1:00 AM)
Low16 °F (Apr 16, 7:00 AM)32% (Apr 7, 4:00 PM)29.21 "Hg (Apr 8, 5:00 PM)
Average35 °F70%29.96 "Hg
* Reported Apr 3 6:00 AM — Apr 18 6:00 AM, Québec, Weather by CustomWeather, © 2014

Note: Actual official high and low records may vary slightly from our data, if they occured in-between our weather recording intervals... More about our weather records

Advertising

Historic Weather Conditions — Data for Previous 24 hours

 ConditionsComfort  
Time TempWeatherWind HumidityBarometerVisibility
6:00 AM
Apr 18
30 °FPassing clouds.6 mph64%30.55 "Hg30 mi
5:00 AM30 °FPassing clouds.5 mph69%30.55 "Hg15 mi
4:00 AM30 °FPassing clouds.5 mph69%30.57 "Hg15 mi
3:00 AM30 °FPassing clouds.6 mph69%30.58 "Hg15 mi
2:00 AM32 °FPassing clouds.6 mph64%30.59 "Hg15 mi
1:00 AM32 °FPassing clouds.6 mph64%30.61 "Hg15 mi
12:00 AM34 °FPassing clouds.8 mph60%30.62 "Hg15 mi
11:00 PM
Apr 17
34 °FPassing clouds.10 mph56%30.63 "Hg15 mi
10:00 PM36 °FPassing clouds.10 mph52%30.64 "Hg15 mi
9:00 PM37 °FPassing clouds.7 mph48%30.65 "Hg15 mi
8:00 PM39 °FScattered clouds.7 mph45%30.66 "Hg25 mi
7:00 PM41 °FPartly sunny.5 mph42%30.67 "Hg30 mi
6:00 PM41 °FPartly sunny.3 mph36%30.69 "Hg30 mi
5:00 PM41 °FPartly sunny.3 mph39%30.72 "Hg30 mi
4:00 PM41 °FScattered clouds.3 mph39%30.74 "Hg30 mi
3:00 PM39 °FPartly sunny.No wind36%30.77 "Hg30 mi
2:00 PM37 °FPartly sunny.9 mph45%30.78 "Hg30 mi
1:00 PM37 °FPartly sunny.6 mph45%30.80 "Hg30 mi
12:00 PM36 °FPartly sunny.5 mph48%30.82 "Hg30 mi
11:00 AM34 °FPartly sunny.5 mph56%30.84 "Hg30 mi
10:00 AM28 °FPassing clouds.3 mph64%30.84 "Hg30 mi
9:00 AM25 °FPassing clouds.No wind69%30.83 "Hg30 mi
8:00 AM23 °FPassing clouds.No wind68%30.81 "Hg30 mi
7:00 AM18 °FPassing clouds.5 mph73%30.79 "Hg30 mi
Weather by CustomWeather, © 2014

See weather overview